Regional Weather Roundup
Issued by NWS

Home | Current Version | Previous Version | Graphics & Text | Print | Product List | Glossary On
Versions: 1 2 3 4 5 6 7 8 9 10 11 12 13 14 15 16 17 18 19 20 21 22 23 24 25 26 27 28 29 30 31 32 33 34 35 36 37 38 39 40 41 42 43 44 45 46 47 48 49 50
090
ASUS43 KFSD 231602
RWRSD

WEATHER ROUNDUP FOR SOUTH DAKOTA
NATIONAL WEATHER SERVICE SIOUX FALLS SD
1000 AM CST THU NOV 23 2017

NOTE: "FAIR" INDICATES FEW OR NO CLOUDS BELOW 12,000 FEET WITH NO
SIGNIFICANT WEATHER AND/OR OBSTRUCTIONS TO VISIBILITY.


SDZ001>005-009-010-012>017-231700-
NORTHWEST AND NORTH CENTRAL SOUTH DAKOTA

CITY           SKY/WX    TMP DP  RH WIND       PRES   REMARKS
FAITH            N/A     51  40  65 SW12      29.85F
MOBRIDGE       CLOUDY    42  37  82 SE10      29.80F
$$

SDZ012>016-024>037-041>051-057-063-072>074-231700-
SOUTHWEST AND SOUTH CENTRAL SOUTH DAKOTA

CITY           SKY/WX    TMP DP  RH WIND       PRES   REMARKS
RAPID CTY ARPT SUNNY     57  39  51 CALM      29.94F
PIERRE         MOSUNNY   46  39  76 SW9       29.88F
CUSTER         SUNNY     56  33  42 W9        30.05F
ELLSWORTH AFB  SUNNY     62  37  39 W9        29.92F
PHILIP         CLOUDY    51  41  68 W14       29.91F
PINE RIDGE     SUNNY     56  40  55 W9        30.01F
SPEARFISH      FAIR      63  34  34 SW18      29.93F
WINNER         FAIR      54  41  61 SW7       29.94F
$$

SDZ004>011-016>023-039-040-231700-
NORTHEAST SOUTH DAKOTA

CITY           SKY/WX    TMP DP  RH WIND       PRES   REMARKS
ABERDEEN       CLOUDY    33  27  78 S13       29.87F WCI  24
WATERTOWN      CLOUDY    33  26  75 S7        29.90F WCI  27
BROOKINGS      SUNNY     34  25  69 S6        29.94F WCI  29
SISSETON         N/A     35  25  66 SE10      29.85F WCI  27
$$

SDZ017-020-022-023-036>040-048>070-231700-
SOUTHEAST SOUTH DAKOTA

CITY           SKY/WX    TMP DP  RH WIND       PRES   REMARKS
SIOUX FALLS    PTSUNNY   39  26  59 SW6       29.98S
HURON          CLOUDY    34  28  79 S10       29.93F WCI  26
CHAMBERLAIN    CLOUDY    46  41  84 CALM      29.94S
MITCHELL       CLOUDY    38  29  70 S8        29.97F
YANKTON        CLOUDY    41  30  65 S3        29.99F
$$

ABBREVIATIONS USED IN REMARKS
   TC - TEMPERATURE IN CELSIUS
  WCI - WIND CHILL INDEX
   HX - HEAT INDEX
  VSB - VISIBILITY





USA.gov is the U.S. government's official web portal to all federal, state and local government web resources and services.